Goodland, KS

2:08 AM MDT on July 21, 2017 (GMT -0600)
Renner-Goodland Municipal

Weather History for KGLD - July, 2013

Change the Weather History Date:

Friday, July 5, 2013

  Actual Average Record
Temperature  
Mean Temperature 82 °F 75 °F  
Max Temperature 100 °F 90 °F 106 °F (1964)
Min Temperature 63 °F 60 °F 44 °F (1931)
Degree Days  
Heating Degree Days 0 0  
Month to date heating degree days 0 0  
Since 1 June heating degree days 31 37  
Since 1 July heating degree days 0 0  
Cooling Degree Days 17 10  
Month to date cooling degree days 34 50  
Year to date cooling degree days 380 270  
Since 1 June cooling degree days 291 229  
Growing Degree Days 32 (Base 50)    
Moisture  
Dew Point 49 °F    
Average Humidity 38    
Maximum Humidity 60    
Minimum Humidity 16    
Precipitation  
Precipitation 0.00 in 0.11 in 1.66 in (1933)
Month to date precipitation T 0.53  
Year to date precipitation 7.40 10.26  
Snow  
Snow 0.00 in 0.00 in - ()
Month to date snowfall 0.0 0.0  
Since 1 June snowfall 0.0 0.0  
Since 1 July snowfall 0.0 0.0  
Snow Depth 0.00 in    
Sea Level Pressure  
Sea Level Pressure 29.68 in    
Wind  
Wind Speed 14 mph (South)    
Max Wind Speed 29 mph    
Max Gust Speed 35 mph    
Visibility 10 miles    
Events      
T = Trace of Precipitation, MM = Missing Value Source: NWS Daily Summary

Daily Weather History Graph

Daily Weather History Graph

Search for Another Location

Airport or City:

Trip Planner

Search our weather history database for the weather conditions in past years. The results will help you decide how hot, cold, wet, or windy it might be!

Date:

Astronomy

Jul. 05, 2013 Rise Set
Actual Time 5:25 AM MDT 8:16 PM MDT
Civil Twilight 4:53 AM MDT 8:48 PM MDT
Nautical Twilight 4:13 AM MDT 9:28 PM MDT
Astronomical Twilight 3:27 AM MDT 10:15 PM MDT
Moon 3:26 AM MDT (7/5) 6:13 PM MDT (7/5)
Length of Visible Light 15h 54m
Length of Day
14h 50m
Waning Crescent, 6% of the Moon is Illuminated
Jul 5
Waning Crescent
Jul 8
New
Jul 15
First Quarter
Jul 22
Full
Jul 29
Last Quarter

Hourly Weather History & Observations

Time (MDT) Temp. Heat Index Dew Point Humidity Pressure Visibility Wind Dir Wind Speed Gust Speed Precip Events Conditions
12:53 AM 73.9 °F - 46.0 °F 37% 29.75 in 10.0 mi South 11.5 mph - N/A   Partly Cloudy
1:53 AM 70.0 °F - 48.0 °F 46% 29.75 in 10.0 mi South 9.2 mph - N/A   Clear
2:53 AM 66.9 °F - 46.9 °F 49% 29.75 in 10.0 mi SSE 10.4 mph - N/A   Clear
3:53 AM 68.0 °F - 48.0 °F 49% 29.73 in 10.0 mi South 13.8 mph - N/A   Clear
4:53 AM 66.0 °F - 48.9 °F 54% 29.72 in 10.0 mi SSE 13.8 mph - N/A   Clear
5:53 AM 63.0 °F - 48.9 °F 60% 29.73 in 10.0 mi South 11.5 mph - N/A   Clear
6:53 AM 66.9 °F - 48.9 °F 52% 29.73 in 10.0 mi South 15.0 mph - N/A   Clear
7:53 AM 72.0 °F - 50.0 °F 46% 29.73 in 10.0 mi South 12.7 mph - N/A   Clear
8:53 AM 77.0 °F - 51.1 °F 40% 29.73 in 10.0 mi South 15.0 mph - N/A   Clear
9:53 AM 82.0 °F - 52.0 °F 35% 29.72 in 10.0 mi SSW 11.5 mph - N/A   Clear
10:53 AM 88.0 °F - 51.1 °F 28% 29.70 in 10.0 mi South 11.5 mph - N/A   Clear
11:53 AM 93.0 °F - 51.1 °F 24% 29.67 in 10.0 mi South 13.8 mph - N/A   Clear
12:53 PM 96.1 °F - 48.0 °F 19% 29.65 in 10.0 mi SSE 19.6 mph 26.5 mph N/A   Clear
1:53 PM 98.1 °F - 45.0 °F 16% 29.64 in 10.0 mi SSE 18.4 mph 27.6 mph N/A   Clear
2:53 PM 98.1 °F - 44.1 °F 16% 29.62 in 10.0 mi SSE 12.7 mph - N/A   Partly Cloudy
3:53 PM 95.0 °F - 46.0 °F 19% 29.62 in 10.0 mi South 13.8 mph 21.9 mph N/A   Clear
4:53 PM 95.0 °F - 46.9 °F 19% 29.60 in 10.0 mi SSE 21.9 mph 28.8 mph N/A   Clear
5:53 PM 93.0 °F - 48.0 °F 21% 29.60 in 10.0 mi South 23.0 mph 34.5 mph N/A   Clear
6:53 PM 91.0 °F - 48.9 °F 23% 29.61 in 10.0 mi South 21.9 mph 29.9 mph N/A   Clear
7:53 PM 89.1 °F - 48.9 °F 25% 29.61 in 10.0 mi South 18.4 mph 33.4 mph N/A   Clear
8:53 PM 84.9 °F - 50.0 °F 30% 29.65 in 10.0 mi South 13.8 mph - N/A   Clear
9:09 PM 86.0 °F - 50.0 °F 29% 29.82 in 10.0 mi WSW 17.3 mph 25.3 mph N/A   Clear
9:53 PM 82.0 °F - 52.0 °F 35% 29.65 in 10.0 mi SSW 6.9 mph - N/A   Clear
10:53 PM 80.1 °F 80.0 °F 54.0 °F 40% 29.65 in 10.0 mi SSW 11.5 mph - N/A   Clear
11:53 PM 75.0 °F - 55.0 °F 50% 29.67 in 10.0 mi WSW 5.8 mph - N/A   Clear